Temperature
22 20 20 21 21 23 23 24 23 23 24 24 23 23 22 22 22 22 22 21 21 22 23 22 22 22 22 21 21 21 20 20 20 19 19 19 19 19 19 18 18 18 18 18
20 20 21 22 22 23 23 23 23 23 24 24 23 23 22 22 22 22 22 22 22 22 22 22 22 22 22 21 21 21 20 20 20 20 19 19 19 19 19 18 18 18 18 18
21 22 22 22 23 23 23 23 23 24 23 23 24 23 22 22 22 23 23 22 22 22 23 23 22 22 22 22 21 21 21 20 20 20 19 19 19 18 18 18 18 18 18 18
21 22 23 23 23 23 22 23 23 24 23 21 23 22 22 21 21 21 22 22 22 23 23 23 23 23 22 22 22 21 21 20 20 19 19 19 19 18 19 18 18 18 18 18
21 22 23 23 23 23 23 24 23 23 22 21 21 21 20 20 21 21 21 22 22 23 23 23 23 23 22 22 22 21 21 20 20 19 19 19 18 18 18 18 18 18 18 18
21 22 23 23 24 23 23 22 20 18 19 21 22 21 21 19 21 21 21 22 22 23 23 23 23 23 22 22 22 21 21 20 20 19 19 19 19 18 18 18 18 18 18 18
22 23 23 24 24 23 22 20 19 20 19 19 20 21 20 20 20 20 21 22 22 23 23 23 23 22 22 22 21 21 21 20 20 19 19 19 18 18 18 18 18 18 18 18
20 21 23 23 23 22 21 20 19 20 20 19 20 20 20 20 20 21 21 22 22 22 22 23 23 22 22 21 21 21 20 20 20 19 19 19 18 18 18 18 18 18 18 18
19 20 22 23 23 22 20 20 19 18 19 20 19 19 20 20 20 20 20 21 22 22 22 22 22 22 21 21 21 21 20 20 19 19 19 18 18 18 18 18 18 18 18 18
19 21 22 23 23 22 21 18 17 17 19 20 21 20 20 21 20 20 19 20 21 22 22 22 22 21 21 21 21 20 20 20 19 19 19 18 18 18 18 18 18 18 17 17
20 21 22 22 22 21 20 19 17 16 17 18 20 20 20 20 19 19 19 20 21 21 21 21 21 21 21 21 20 20 20 19 19 19 18 18 18 18 17 18 18 18 17 17
18 18 19 21 22 22 21 19 17 19 18 17 18 19 20 19 19 18 19 20 21 21 21 21 21 21 20 20 20 20 19 19 19 18 18 18 18 18 17 17 18 17 17 17
18 18 19 20 21 21 21 19 18 17 15 16 18 20 19 18 18 19 19 20 20 21 20 20 20 20 20 20 20 19 19 19 18 18 18 18 18 18 17 17 17 17 17 17
19 17 18 19 19 20 21 20 18 18 17 17 18 20 20 19 18 18 19 19 20 20 20 20 20 20 20 20 19 19 19 19 18 18 18 18 17 17 17 17 17 17 17 16
18 18 18 19 20 21 22 21 19 20 18 19 19 19 20 19 18 18 19 19 19 19 20 20 20 20 20 19 19 19 18 18 18 18 18 17 17 17 17 17 17 17 16 16
16 18 18 20 21 21 21 21 20 21 20 20 20 19 18 18 18 18 18 18 18 19 19 20 20 20 19 19 19 19 18 18 18 17 17 17 17 17 17 17 16 16 16 16
15 16 17 18 20 21 21 21 21 21 20 20 20 20 17 17 17 18 18 19 19 19 19 20 20 20 19 19 19 18 18 18 17 17 17 17 17 16 16 16 16 16 16 16
15 15 14 16 19 20 20 20 20 20 20 19 19 18 17 17 18 18 19 19 19 19 19 19 19 19 19 19 18 18 18 17 17 17 17 17 16 16 16 16 16 15 15 15
14 15 14 15 18 19 20 20 19 20 19 18 17 17 17 17 17 17 18 19 19 19 19 19 19 19 18 18 18 18 17 17 17 17 17 16 16 16 16 16 15 15 15 15
13 14 14 15 18 19 20 19 19 19 19 18 17 16 16 16 17 17 18 18 18 18 18 18 18 18 18 18 17 17 17 17 17 16 16 16 16 15 15 15 15 15 15 14
15 14 15 15 17 18 18 17 19 20 19 18 17 16 16 17 18 18 18 18 18 18 18 18 18 17 17 17 17 17 16 16 16 16 16 15 15 15 15 15 15 14 14 14
14 14 14 14 17 17 17 17 17 17 17 17 17 17 17 17 17 17 17 17 17 17 17 17 17 17 16 16 16 16 16 16 16 15 15 15 15 15 14 14 14 14 13 13
13 13 13 14 15 15 15 15 16 17 17 17 17 17 17 17 16 16 16 16 17 16 16 16 16 16 16 16 16 16 15 15 15 15 15 14 14 14 14 14 13 13 13 13
12 12 12 13 14 14 15 16 17 17 17 18 18 18 17 17 16 16 16 16 16 16 16 16 16 16 15 15 15 15 15 15 15 14 14 14 14 14 13 13 13 13 12 12
12 12 12 13 13 14 15 15 16 17 17 17 17 17 17 16 16 15 15 15 15 15 15 16 15 15 15 15 15 14 14 14 14 14 13 13 13 13 13 12 12 12 12 11
11 12 13 13 14 13 14 15 16 16 16 16 16 16 16 16 15 15 15 14 15 15 15 15 15 15 14 14 14 14 14 14 14 13 13 12 12 12 12 12 11 11 11 11
Wind_Speed
3 5 4 7 7 6 4 1 3 5 3 1 4 6 5 7 8 9 9 10 11 12 9 8 9 10 10 10 10 11 11 10 8 6 6 6 6 6 5 7 11 12 12 12
4 4 7 6 6 4 3 1 3 4 2 0 2 4 3 6 10 11 11 11 11 9 7 8 8 9 11 11 11 11 12 11 10 8 6 4 4 4 5 5 8 12 12 12
7 5 5 6 5 4 3 5 4 3 5 5 2 6 4 2 3 5 6 7 8 10 11 10 10 11 10 11 12 11 11 10 9 8 5 3 2 1 2 4 5 8 12 12
5 5 4 5 5 6 4 6 5 2 2 3 2 2 6 3 3 5 6 7 8 9 9 9 9 9 10 11 10 9 9 9 8 8 7 7 6 5 6 5 5 6 10 11
7 5 6 6 7 9 7 2 3 1 3 1 3 2 7 2 4 8 8 8 8 8 9 8 9 9 8 8 8 8 8 8 8 8 9 9 7 6 4 4 6 6 6 8
5 4 6 7 5 7 5 7 7 6 5 1 2 3 6 4 7 6 7 7 7 7 6 6 5 5 5 6 7 7 7 7 7 8 9 9 9 7 6 6 6 6 5 5
2 4 4 4 3 3 6 6 4 4 4 5 3 2 8 7 7 8 8 7 6 6 6 6 6 6 5 6 7 7 7 7 7 8 8 8 8 8 9 7 7 6 4 5
6 5 6 6 8 7 7 10 8 6 5 4 2 5 7 6 6 5 4 4 4 5 5 5 6 7 7 6 6 6 7 6 6 6 6 5 5 5 5 6 6 6 5 5
8 7 5 5 6 11 8 5 8 7 4 1 5 6 8 3 3 2 0 2 3 4 4 5 5 5 6 6 6 6 6 5 5 5 5 4 4 4 4 4 4 4 4 4
9 4 4 2 6 4 7 10 7 7 6 3 4 5 5 6 5 3 2 2 2 3 4 4 5 5 5 5 5 5 6 5 4 4 4 4 3 3 3 2 3 3 4 4
7 5 3 2 6 8 6 6 6 6 6 7 3 7 7 8 7 6 5 3 3 4 5 5 5 5 5 5 5 5 4 4 3 3 3 3 2 2 2 2 2 3 2 3
6 6 3 5 4 5 7 9 9 7 5 5 5 8 5 6 5 5 4 2 2 4 4 5 5 5 5 5 4 4 4 3 3 3 3 3 2 2 2 1 1 1 2 2
8 7 3 4 4 1 4 5 6 7 7 6 6 7 2 1 2 3 4 3 3 5 5 5 5 5 4 4 4 4 3 3 3 4 3 3 2 2 1 1 0 1 1 1
8 6 7 9 8 6 5 5 6 8 6 7 8 8 5 4 4 3 3 4 4 5 5 5 5 4 4 3 3 4 3 3 4 4 4 3 2 2 2 1 1 1 1 1
6 6 6 5 5 5 5 7 8 7 10 10 10 10 10 10 8 6 5 6 6 5 5 5 5 4 4 4 3 3 3 3 4 4 4 2 2 3 3 3 3 3 3 3
4 6 4 1 2 4 3 5 9 7 6 6 4 8 7 4 4 5 7 8 7 6 5 5 5 5 4 4 4 3 3 3 4 4 3 3 3 4 4 4 4 4 4 4
3 6 5 3 2 4 3 5 7 6 5 8 9 9 5 6 8 9 8 8 7 7 6 6 5 5 4 4 4 4 3 4 5 4 4 4 5 5 4 5 5 5 5 5
6 6 4 4 4 5 7 3 4 5 3 5 5 5 9 8 6 4 5 8 7 6 6 5 4 3 3 4 4 5 5 5 5 5 5 5 5 5 5 6 6 5 5 6
4 7 5 4 5 2 3 1 3 4 2 3 5 6 7 9 6 2 2 4 6 6 6 5 4 4 4 4 5 6 5 5 6 5 5 5 5 6 6 6 6 5 6 7
5 5 6 5 5 6 6 2 1 3 3 3 6 9 11 10 6 5 6 7 7 7 6 6 5 6 6 4 5 7 6 6 5 4 5 5 6 6 6 6 6 6 7 7
4 4 4 4 3 5 4 3 2 5 7 3 7 9 11 8 6 6 9 8 7 8 8 7 7 6 5 5 6 8 7 6 5 6 7 7 7 6 6 7 7 8 8 9
3 4 4 4 4 6 2 1 5 5 2 3 5 7 7 6 7 9 10 9 9 9 8 8 8 7 6 6 7 8 6 5 6 8 8 8 8 7 7 8 8 8 8 9
2 4 4 5 6 4 3 4 4 2 2 2 5 6 9 9 8 9 9 10 9 9 8 7 9 9 7 6 6 8 6 6 8 9 9 9 9 9 8 8 8 8 7 7
1 2 2 1 3 3 3 3 3 1 2 2 6 8 9 10 10 10 10 9 9 8 8 7 9 9 7 6 6 6 6 7 9 10 9 8 9 10 9 8 7 7 6 6
3 2 2 1 3 3 3 2 2 3 5 6 7 7 9 12 11 10 10 9 8 8 7 7 8 8 7 6 6 6 6 8 9 10 9 9 9 9 10 10 8 7 6 4
3 5 5 5 5 4 2 1 1 4 5 6 8 8 8 10 11 10 9 8 8 7 7 8 8 8 7 7 7 5 5 7 10 9 8 7 7 8 9 10 10 16 12 15
Wind_Direction
92 95 186 199 178 163 144 140 284 270 260 199 230 254 255 197 191 192 194 195 199 208 203 187 185 184 183 187 188 190 192 190 179 178 186 192 207 209 205 210 213 207 204 201
66 236 212 164 157 149 149 255 285 304 353 148 257 291 282 195 204 201 198 200 202 202 193 190 182 187 188 191 192 191 194 191 188 192 188 188 189 198 207 207 208 209 204 200
175 222 164 155 165 168 198 201 226 266 354 23 50 346 338 286 224 212 211 206 203 201 200 197 193 196 193 196 196 196 194 191 191 185 170 158 142 143 190 204 211 212 207 205
210 233 168 169 192 162 240 221 200 216 55 328 41 292 299 297 271 233 222 208 206 206 203 199 197 199 198 198 192 191 187 186 187 179 180 182 191 203 209 206 209 211 209 207
217 197 176 198 204 168 205 162 141 106 137 33 14 146 287 318 262 253 235 220 215 208 200 201 202 199 196 188 185 187 181 186 186 187 190 192 203 210 207 205 205 213 211 208
217 217 194 201 193 171 147 71 54 47 73 53 274 168 274 249 237 252 242 227 216 208 196 194 190 171 179 182 178 177 180 192 187 192 198 201 203 205 204 210 210 214 212 210
243 250 225 174 129 109 111 95 41 9 20 247 288 198 248 257 252 240 238 228 212 197 186 178 168 171 178 179 177 176 181 195 194 197 205 210 209 207 211 212 211 208 209 212
176 252 224 187 174 168 166 142 155 180 206 264 321 234 255 268 278 262 235 209 188 185 181 172 171 170 171 179 176 173 181 192 192 198 210 210 205 207 214 208 204 207 211 216
173 235 268 216 176 140 134 160 155 130 145 125 284 287 301 274 303 303 206 158 171 179 167 161 157 156 161 166 169 171 174 181 187 194 196 197 196 203 215 211 206 206 211 216
155 208 273 239 100 56 141 141 111 124 144 209 283 275 254 261 258 259 238 204 181 152 141 141 141 148 155 160 153 151 163 175 180 181 189 194 195 200 206 204 212 212 217 221
139 160 301 73 167 168 115 108 112 116 144 152 219 264 230 228 224 221 226 214 181 155 148 144 141 140 134 127 134 146 153 152 159 176 183 178 185 191 189 204 217 218 218 211
146 132 223 261 261 179 153 159 146 149 184 164 170 260 270 233 218 203 208 200 161 146 141 135 128 122 122 126 133 141 147 154 163 162 157 162 165 158 169 202 217 201 206 213
141 128 117 344 348 109 136 153 147 125 122 149 168 258 297 241 204 190 180 170 153 138 127 118 116 121 128 132 134 132 134 140 136 130 135 137 136 140 156 169 151 135 158 185
130 126 163 188 208 182 170 164 148 129 148 183 210 236 263 238 221 197 177 164 147 138 130 124 122 123 127 132 128 122 123 125 126 124 127 134 144 150 142 126 102 89 85 88
122 153 184 210 208 173 178 181 169 171 177 179 216 216 235 219 207 188 167 153 144 143 139 140 140 135 130 124 115 114 114 115 117 116 114 121 123 114 104 94 82 77 76 76
100 147 155 220 205 175 176 183 179 185 175 192 195 234 238 192 157 161 166 161 158 156 149 143 138 134 136 135 128 120 116 118 114 115 118 110 103 100 98 91 82 76 72 68
116 126 129 201 202 113 207 205 182 187 186 172 197 222 171 167 180 182 176 169 164 161 153 147 148 147 151 144 130 120 116 116 114 111 110 104 100 94 90 89 79 71 67 71
134 116 123 137 118 186 236 251 189 170 196 200 203 190 175 175 157 147 157 163 160 154 148 141 138 135 126 119 115 111 112 117 114 108 105 104 103 98 92 89 83 75 68 68
146 132 118 125 153 229 289 237 151 154 229 202 179 163 142 120 95 70 160 148 150 143 135 133 128 124 116 116 116 111 108 106 105 104 102 105 107 105 101 98 95 90 87 77
60 92 113 122 140 201 230 260 272 121 259 216 166 161 152 137 156 205 165 134 123 118 114 112 110 106 104 103 114 112 107 103 102 104 101 101 103 105 105 105 100 90 88 85
59 61 106 136 167 244 255 287 126 161 233 200 170 169 166 176 188 154 137 128 123 115 109 106 104 98 95 102 109 105 99 95 94 96 96 96 96 96 99 98 93 94 92 88
151 135 151 137 158 235 309 71 174 219 251 164 169 169 164 136 115 123 129 127 121 115 111 109 106 96 86 94 105 102 98 98 96 95 92 88 87 90 93 94 92 92 96 92
173 182 178 182 202 245 279 255 273 237 202 187 161 153 145 135 132 130 130 127 121 118 114 109 108 100 88 85 101 109 105 104 102 96 92 87 85 82 85 91 96 93 91 95
253 143 134 261 279 288 300 304 315 258 208 172 150 144 139 138 137 133 131 126 121 117 116 114 112 108 100 91 92 102 107 106 107 104 98 92 91 85 77 74 77 87 88 96
226 165 142 251 277 310 324 345 357 57 87 107 114 123 133 134 135 135 132 128 125 121 117 114 113 112 108 102 96 97 107 110 108 105 101 95 90 94 85 73 61 70 59 85
210 185 177 213 218 193 249 306 71 104 111 122 118 110 115 128 132 128 125 122 117 112 111 108 104 104 102 100 96 92 100 115 115 109 105 102 101 100 100 96 79 59 67 69
Height
1488 1495 1502 1500 1499 1501 1503 1507 1510 1505 1497 1499 1502 1501 1497 1496 1498 1501 1503 1505 1507 1509 1512 1516 1519 1521 1524 1527 1529 1532 1534 1537 1539 1542 1544 1545 1547 1549 1551 1553 1556 1558 1560 1561
1494 1498 1493 1493 1496 1499 1502 1507 1508 1503 1497 1498 1502 1501 1496 1495 1496 1497 1499 1502 1504 1508 1511 1514 1517 1519 1521 1524 1526 1529 1532 1534 1537 1539 1541 1543 1545 1547 1549 1551 1553 1555 1557 1558
1493 1492 1488 1492 1496 1500 1502 1506 1505 1505 1501 1500 1502 1507 1501 1496 1496 1498 1499 1501 1503 1505 1507 1511 1513 1515 1518 1521 1523 1526 1529 1532 1534 1537 1539 1541 1543 1544 1546 1548 1549 1551 1553 1555
1490 1486 1487 1491 1495 1497 1506 1497 1499 1501 1509 1517 1510 1524 1508 1501 1499 1497 1497 1498 1499 1501 1504 1507 1510 1512 1514 1517 1521 1524 1526 1529 1531 1534 1536 1537 1538 1540 1541 1544 1546 1548 1550 1552
1488 1484 1486 1490 1490 1492 1496 1493 1496 1501 1508 1518 1516 1523 1517 1504 1502 1497 1494 1494 1495 1498 1500 1503 1506 1509 1512 1515 1518 1521 1524 1526 1528 1530 1532 1533 1535 1536 1538 1540 1542 1544 1546 1548
1483 1480 1481 1483 1483 1486 1489 1497 1504 1513 1519 1530 1520 1523 1521 1509 1500 1494 1490 1491 1492 1495 1498 1500 1504 1507 1511 1513 1515 1518 1520 1523 1525 1527 1528 1529 1531 1532 1533 1535 1537 1539 1541 1543
1485 1481 1478 1478 1484 1487 1492 1511 1531 1531 1541 1537 1522 1522 1518 1498 1493 1490 1488 1488 1489 1492 1495 1497 1500 1504 1507 1510 1512 1514 1517 1519 1521 1523 1525 1526 1528 1529 1530 1531 1533 1535 1537 1539
1494 1495 1479 1476 1481 1489 1494 1504 1529 1539 1542 1536 1523 1523 1507 1493 1489 1487 1486 1487 1488 1490 1493 1495 1498 1502 1504 1507 1510 1513 1515 1517 1519 1520 1522 1524 1525 1526 1527 1528 1530 1531 1533 1535
1493 1492 1474 1472 1473 1480 1496 1502 1504 1524 1530 1534 1529 1517 1502 1490 1488 1487 1486 1486 1487 1489 1492 1494 1497 1501 1504 1506 1508 1511 1513 1515 1517 1518 1520 1521 1522 1523 1524 1525 1526 1528 1529 1531
1479 1487 1476 1472 1473 1478 1483 1495 1511 1524 1538 1539 1527 1521 1513 1495 1491 1488 1487 1486 1487 1489 1492 1494 1497 1500 1503 1505 1507 1510 1511 1513 1515 1516 1517 1519 1519 1520 1521 1522 1523 1525 1526 1527
1472 1484 1481 1476 1478 1484 1489 1496 1506 1519 1522 1536 1536 1523 1494 1490 1487 1487 1486 1486 1488 1489 1492 1494 1496 1499 1502 1504 1507 1508 1510 1512 1513 1514 1516 1517 1518 1518 1519 1520 1521 1522 1523 1524
1471 1484 1491 1482 1473 1472 1477 1487 1499 1512 1521 1525 1528 1518 1485 1484 1483 1484 1485 1486 1488 1490 1492 1494 1497 1499 1501 1504 1506 1508 1509 1511 1512 1513 1515 1515 1516 1517 1518 1519 1519 1520 1521 1522
1468 1483 1496 1493 1487 1478 1479 1484 1489 1499 1515 1525 1525 1510 1484 1483 1483 1483 1485 1486 1488 1490 1492 1494 1497 1499 1501 1504 1506 1507 1509 1510 1511 1512 1513 1515 1515 1516 1517 1517 1518 1519 1519 1520
1459 1478 1488 1495 1489 1480 1480 1482 1487 1495 1511 1517 1511 1499 1487 1484 1483 1483 1484 1486 1488 1489 1491 1494 1497 1499 1502 1504 1506 1507 1508 1510 1511 1511 1512 1513 1514 1515 1516 1517 1518 1518 1518 1519
1458 1474 1475 1474 1471 1472 1473 1476 1482 1485 1491 1499 1496 1493 1483 1479 1479 1481 1483 1485 1487 1489 1491 1493 1496 1499 1501 1504 1505 1506 1508 1509 1509 1510 1511 1512 1513 1514 1515 1516 1517 1517 1518 1518
1461 1470 1473 1473 1470 1470 1472 1472 1476 1478 1481 1484 1484 1485 1475 1475 1478 1480 1482 1484 1486 1488 1491 1493 1496 1499 1501 1503 1504 1506 1507 1508 1509 1509 1511 1512 1513 1514 1515 1516 1517 1517 1517 1517
1465 1470 1479 1482 1473 1472 1481 1472 1473 1473 1473 1477 1482 1476 1473 1476 1477 1478 1481 1483 1485 1488 1491 1493 1496 1498 1501 1502 1504 1505 1507 1508 1509 1510 1511 1512 1514 1514 1516 1516 1517 1517 1517 1517
1464 1471 1481 1484 1480 1490 1477 1464 1464 1468 1469 1469 1469 1469 1469 1471 1474 1477 1480 1482 1484 1488 1491 1494 1496 1499 1501 1502 1504 1505 1506 1508 1509 1510 1512 1513 1514 1515 1516 1517 1517 1518 1518 1518
1459 1467 1480 1488 1488 1482 1470 1464 1465 1468 1470 1466 1467 1468 1470 1473 1476 1479 1481 1482 1485 1488 1491 1493 1496 1499 1500 1502 1504 1505 1506 1508 1509 1510 1512 1513 1514 1515 1516 1517 1518 1518 1519 1519
1460 1463 1476 1485 1486 1488 1472 1463 1462 1465 1471 1464 1464 1466 1469 1472 1479 1478 1478 1482 1485 1488 1491 1493 1496 1498 1500 1502 1503 1505 1506 1508 1509 1511 1512 1514 1515 1516 1517 1518 1519 1519 1520 1520
1469 1472 1477 1481 1482 1477 1465 1461 1462 1475 1470 1461 1462 1464 1467 1468 1470 1472 1476 1480 1484 1487 1490 1493 1495 1497 1499 1502 1504 1505 1506 1508 1510 1512 1513 1514 1516 1517 1518 1519 1519 1520 1521 1522
1471 1475 1479 1481 1483 1480 1462 1461 1465 1464 1458 1458 1460 1462 1465 1467 1470 1472 1476 1479 1483 1487 1490 1493 1495 1498 1500 1502 1504 1505 1507 1509 1510 1512 1513 1515 1516 1518 1519 1519 1520 1522 1523 1524
1470 1470 1472 1472 1473 1465 1462 1461 1460 1459 1458 1458 1459 1462 1464 1467 1470 1474 1477 1480 1484 1487 1491 1493 1495 1498 1500 1503 1505 1506 1507 1509 1511 1512 1514 1516 1517 1518 1520 1521 1522 1524 1525 1525
1467 1466 1468 1468 1464 1462 1460 1459 1458 1458 1458 1458 1459 1462 1464 1467 1471 1475 1478 1482 1485 1488 1491 1494 1496 1498 1500 1503 1505 1507 1508 1510 1511 1513 1515 1517 1518 1520 1521 1523 1524 1526 1527 1528
1465 1465 1466 1466 1463 1461 1459 1458 1458 1458 1458 1459 1461 1463 1466 1468 1473 1476 1480 1483 1486 1489 1491 1494 1497 1498 1501 1503 1505 1508 1509 1511 1512 1514 1516 1518 1520 1521 1523 1525 1527 1528 1529 1531
1462 1463 1464 1463 1460 1460 1460 1459 1459 1459 1460 1461 1463 1465 1468 1470 1474 1478 1481 1484 1487 1490 1492 1494 1497 1500 1502 1504 1506 1508 1510 1512 1514 1515 1517 1520 1522 1523 1525 1527 1528 1530 1532 1533